This demonstration page uses our WeatherBlox Daily Observations layout. Learn more.

Left ArrowRight Arrow

38.83388, -104.82136

Hourly Observations for May 25, 2022

Temp ( °F °C ) Dew Point ( °F °C ) Humidity (%) Winds ( mph kmh ) Pressure ( in mb ) Visibility ( mi km ) Precip ( " mm )
12:58 am 00:58 Mostly Cloudy 41 5.1 30 -0.9 66 66 N 8 13 29.64 1004 10 16 0.00 0.00
1:58 am 01:58 Partly Cloudy 40 4.4 31 -0.4 71 71 NW 14 22 29.64 1004 10 16 0.00 0.00
2:58 am 02:58 Cloudy 39 4 31 -0.6 72 72 SSW 3 6 29.60 1002 10 16 0.00 0.00
3:58 am 03:58 Clear 38 3.4 31 -0.8 74 74 NNW 6 9 29.61 1003 10 16 0.00 0.00
4:58 am 04:58 Clear 41 4.8 27 -2.8 58 58 N 6 9 29.65 1004 10 16 0.00 0.00
5:58 am 05:58 Sunny 41 5.1 28 -2.3 59 59 NW 12 19 29.68 1005 10 16 0.00 0.00
6:58 am 06:58 Sunny 42 5.5 29 -1.4 61 61 N 14 22 29.73 1007 10 16 0.00 0.00
7:58 am 07:58 Sunny 46 7.5 31 -0.5 57 57 N 14 22 29.76 1008 10 16 0.00 0.00
8:58 am 08:58 Sunny 49 9.4 29 -1.9 45 45 N 16 26 29.80 1009 10 16 0.00 0.00
9:58 am 09:58 Sunny 52 11.1 25 -3.8 35 35 N 17 28 29.80 1009 10 16 0.00 0.00
10:58 am 10:58 Sunny 55 12.6 25 -3.7 32 32 N 17 28 29.78 1009 10 16 0.00 0.00
11:29 am 11:29 Sunny 55 13 25 -4 31 31 NW 14 22 29.78 1009 10 16 0.00 0.00
11:33 am 11:33 Sunny 55 13 25 -4 31 31 N 13 20 29.78 1009 10 16 0.00 0.00
11:58 am 11:58 Sunny 57 13.8 24 -4.4 28 28 N 17 28 29.81 1010 10 16 0.00 0.00
12:58 pm 12:58 Sunny 59 14.9 25 -3.9 27 27 N 13 20 29.81 1010 10 16 0.00 0.00
1:58 pm 13:58 Partly Cloudy 62 16.4 28 -2.2 28 28 E 8 13 29.84 1011 10 16 0.00 0.00
2:58 pm 14:58 Mostly Sunny 60 15.3 27 -2.6 29 29 NE 5 7 29.82 1010 9 14 0.00 0.00
3:58 pm 15:58 Sunny 61 16.2 27 -2.8 27 27 N 12 19 29.83 1010 10 16 0.00 0.00
4:58 pm 16:58 Sunny 62 16.4 27 -2.7 27 27 N 9 15 29.81 1010 10 16 0.00 0.00
5:58 pm 17:58 Sunny 60 15.4 27 -2.6 29 29 NNW 10 17 29.74 1007 10 16 0.00 0.00
6:58 pm 18:58 Mostly Sunny 58 14.7 29 -1.8 32 32 NW 8 13 29.70 1006 10 16 0.00 0.00
7:58 pm 19:58 Sunny 55 12.7 31 -0.6 40 40 WNW 8 13 29.68 1005 10 16 0.00 0.00
8:58 pm 20:58 Clear 55 13 29 -1.4 37 37 WNW 10 17 29.68 1005 10 16 0.00 0.00
9:58 pm 21:58 Clear 53 11.6 31 -0.6 43 43 WNW 8 13 29.66 1004 10 16 0.00 0.00
10:58 pm 22:58 Clear 56 13.3 29 -1.8 35 35 SSW 6 9 29.66 1005 10 16 0.00 0.00
11:58 pm 23:58 Clear 52 11.3 31 -0.8 43 43 WNW 5 7 29.66 1004 10 16 0.00 0.00

Powered by AerisWeather